Back to catalog

STARLINK-2538

AliveCommunicationsVLEO
NORAD 48300·PAYLOAD·🇺🇸 United States

Launched Apr 29, 2021 from Cape Canaveral Space Force Station

Loading…

Next Passes (next 24 hours)

TLE

FreshSource: CelesTrak SupGP

Epoch: Sep 14, 2026, 13:54 UTC

1 48300C 21036AA  26257.57965278  .00040836  00000+0  13129-2 0  2573
2 48300  53.1574 289.1141 0001168  73.8369 296.1239 15.31687738    12

Track STARLINK-2538 in real time with AllMySat

Download on the App Store